Regional Weather Roundup
Issued by NWS Green Bay, WI

Home | Current Version | Previous Version | Graphics & Text | Print | Product List | Glossary Off
Versions: 1 2 3 4 5 6 7 8 9 10 11 12 13 14 15 16 17 18 19 20 21 22 23 24 25 26 27 28 29 30 31 32 33 34 35 36 37 38 39 40 41 42 43 44 45 46 47 48 49 50

902
ASUS43 KGRB 101500
RWRGRB

NORTH-CENTRAL AND NORTHEAST WISCONSIN REGIONAL WEATHER ROUNDUP
NATIONAL WEATHER SERVICE GREEN BAY WI
900 AM CST SAT DEC 10 2016

WIZ005-009-010>012-018-019-101600-
NORTH CENTRAL WISCONSIN

CITY           SKY/WX    TMP DP  RH WIND       PRES   REMARKS
IRONWOOD       LGT SNOW   5   0  79 SW12      30.40S WCI -11
MANITOWISH WTR NOT AVBL
ARBOR VITAE    NOT AVBL
EAGLE RIVER    NOT AVBL
LAND O LAKES   NOT AVBL
RHINELANDER    SUNNY      7  -2  66 W12       30.36S WCI  -8
PHILLIPS       SUNNY      6  -3  66 W5        30.39R WCI  -3
ANTIGO         NOT AVBL
TOMAHAWK       NOT AVBL
MERRILL        NOT AVBL
$$

WIZ013-073-101600-
NORTHEAST WISCONSIN

CITY           SKY/WX    TMP DP  RH WIND       PRES   REMARKS
IRON MOUNTAIN  SUNNY      9  -2  61 W13       30.36R WCI  -7
MARINETTE      NOT AVBL
$$

WIZ017-030-035>037-045-101600-
CENTRAL WISCONSIN

CITY           SKY/WX    TMP DP  RH WIND       PRES   REMARKS
MEDFORD        NOT AVBL
WAUSAU         FLURRIES  10   2  69 NW12      30.41R WCI  -5
MOSINEE        FLURRIES  10   7  85 W8        30.42R WCI  -1
MARSHFIELD     CLOUDY    10   0  63 W7        30.42S WCI  -1
WISC RAPIDS    CLOUDY    11   7  84 W6        30.46S WCI   1
STEVENS POINT  NOT AVBL
WAUPACA        NOT AVBL
SHAWANO        NOT AVBL
CLINTONVILLE   NOT AVBL
WAUTOMA        MOSUNNY   11   7  84 W9        30.48R WCI  -2
$$

WIZ038-039-048-051-101600-
FOX VALLEY

CITY           SKY/WX    TMP DP  RH WIND       PRES   REMARKS
NWS GREEN BAY  SUNNY     19   6  57 W10       30.45R WCI   7
APPLETON       MOSUNNY   14   1  57 W14       30.43R WCI  -1
OSHKOSH        SUNNY     14   8  77 W8        30.46R WCI   3
FOND DU LAC    SUNNY     15   7  70 W8        30.47R WCI   4
$$

WIZ022-050-052-101600-
EAST CENTRAL WISCONSIN

CITY           SKY/WX    TMP DP  RH WIND       PRES   REMARKS
EPHRAIM        NOT AVBL
WASHINGTON ISL NOT AVBL
STURGEON BAY   CLOUDY    15   5  64 NW14      30.43R WCI   0
MANITOWOC      NOT AVBL
SHEBOYGAN      SUNNY     16   9  74 W12       30.46R WCI   3
$$

LMZ563-521-522-541>543-101600-
LAKESHORE

STATION/POSITION TIME  TEMP    WIND        PRES    VSBY  WAVE
                       AIR SEA DIR/SP/G                  HT/PER
                 (UTC) (F)     (DEG/KT/KT) (MB)    (MI)  (FT/S)
SHEBOYGAN LKSHOR 1400   16     250/ 10/ 12 1032.4R
KEWAUNEE LKSHORE 1430   18     290/ 10/ 14 1029.6R
NORTHPORT PIER   1440   17     280/  9/ 20 1029.5S
SISTER BAY LKSHO 1420   16     330/ 20/ 25   N/A
CHAMBERS ISLAND  1440   17     270/  7/ 17 1029.5R
MENOMINEE LKSHOR 1424   14     290/  8/ 12 1029.5
$$




USA.gov is the U.S. government's official web portal to all federal, state and local government web resources and services.